Location: Broek-Noord
(52.9833°N, 5.7833°E)
Time: 14:54:03
(UTC+00:00)

Daily predictions for brighter satellites

Satellite Brightness Start Highest point End
(mag) Time Altitude Azimuth Time Altitude Azimuth Time Altitude Azimuth
NOSS 3-4 (A) 3.9 18:43:45 10° NW 18:50:31 70° NE 18:57:59 10° ESE
NOSS 3-4 (C) 3.9 18:43:51 10° NW 18:50:37 69° NE 18:58:05 10° ESE
Cosmos 1656 Rocket 3.8 18:46:49 10° NNW 18:52:30 68° NE 18:58:06 10° SE
ADEOS Rocket 3.5 18:45:57 10° NNE 18:52:36 74° WNW 18:58:33 10° SSW
CZ-2C R/B 3.7 18:52:16 10° NE 18:56:12 21° E 19:00:07 10° SE
STARLINK-1241 3.7 18:53:02 10° W 18:57:12 90° N 19:01:22 10° E
SL-16 R/B 2.8 18:52:18 10° SW 18:57:56 66° NW 19:03:36 10° NNE
STARLINK-1228 2.7 18:55:05 10° W 18:58:00 87° S 19:00:56 10° E
Resurs 1-3 4.2 18:57:05 10° SE 19:01:10 39° ENE 19:05:16 10° N
STARLINK-1239 3.6 18:58:00 10° W 19:02:10 89° N 19:06:20 10° E
NOSS 3-3 (A) 4.1 18:56:51 10° SSW 19:02:34 52° SE 19:09:02 10° NE
NOSS 3-3 (C) 4.1 18:56:57 10° SSW 19:02:40 51° SE 19:09:08 10° NE
Cosmos 2251 Rocket 3.6 18:58:21 10° S 19:03:39 64° ESE 19:09:00 10° NNE
Cosmos 1726 2.5 19:00:14 10° SSE 19:03:47 44° E 19:07:22 10° NNE
MetOp-A 4.4 18:58:42 10° SE 19:03:54 53° ENE 19:09:07 10° N
Cosmos 2184 Rocket 4.0 18:58:15 10° N 19:04:35 70° ENE 19:10:48 10° SSE
ARGOS 3.2 19:00:29 10° SSE 19:05:53 87° ENE 19:11:19 10° NNW
ISS -1.1 19:04:17 10° WSW 19:05:54 13° SW 19:07:32 10° S
STARLINK-1240 3.6 19:03:00 10° W 19:07:10 89° N 19:11:20 10° E
MONITOR-E 3.8 19:04:54 10° SSE 19:07:32 81° WSW 19:10:13 10° NNW
STARLINK-1233 2.9 19:05:01 10° W 19:08:09 89° S 19:11:11 11° E
STARLINK-1212 2.9 19:05:28 10° W 19:08:36 89° SW 19:11:36 11° E
STARLINK-1105 2.9 19:05:54 10° W 19:09:03 89° SSW 19:12:03 11° E
SJ-6B 2.9 19:05:11 10° SSE 19:09:18 81° ENE 19:13:28 10° NNW
STARLINK-1206 2.8 19:06:24 10° W 19:09:32 89° S 19:12:28 11° E
STARLINK-1247 2.8 19:06:51 10° W 19:09:59 89° SSW 19:12:54 11° E
STARLINK-1227 2.9 19:07:15 10° W 19:10:24 89° S 19:13:20 12° E
STARLINK-1218 2.8 19:07:45 10° W 19:10:53 89° SSW 19:13:47 12° E
STARLINK-1226 2.8 19:08:11 10° W 19:11:19 89° SSW 19:14:12 12° E
STARLINK-1254 2.9 19:08:36 10° W 19:11:45 88° SSW 19:14:38 12° E
STARLINK-1216 3.6 19:07:59 10° W 19:12:10 88° N 19:16:20 10° E
STARLINK-1215 2.8 19:09:06 10° W 19:12:14 88° SSW 19:15:04 12° E
STARLINK-67 2.5 19:10:04 10° W 19:12:37 66° SSW 19:14:43 14° ESE
STARLINK-1231 2.8 19:09:33 10° W 19:12:41 88° S 19:15:30 12° E
Meteor 2-10 4.2 19:07:22 10° S 19:12:44 60° E 19:18:19 10° NNE
STARLINK-1232 2.8 19:10:27 10° W 19:13:36 88° S 19:16:22 13° E
STARLINK-1217 2.8 19:10:54 10° W 19:14:02 88° S 19:16:48 13° E
USA 186 2.2 19:11:00 10° S 19:14:19 65° W 19:17:29 10° NNW
STARLINK-1208 2.8 19:11:18 10° W 19:14:28 88° S 19:17:15 13° E
STARLINK-1229 2.8 19:11:48 10° W 19:14:55 87° S 19:17:39 13° E
STARLINK-1271 2.8 19:12:15 10° W 19:15:23 87° S 19:18:07 13° E
Cosmos 1980 Rocket 4.4 19:12:21 10° NNW 19:15:24 15° NNE 19:18:27 10° NE
STARLINK-1234 2.8 19:12:22 10° W 19:15:25 81° S 19:17:59 14° ESE
STARLINK-1270 2.8 19:12:43 10° W 19:15:51 87° S 19:18:33 13° E
STARLINK-1154 2.8 19:13:09 10° W 19:16:16 87° S 19:18:57 13° E
STARLINK-1237 3.6 19:12:57 10° W 19:17:07 88° N 19:21:10 11° E
STARLINK-1197 2.8 19:14:03 10° W 19:17:11 87° S 19:19:50 14° E
STARLINK-1189 2.8 19:14:30 10° W 19:17:38 87° S 19:20:16 14° E
IRIDIUM 104 4.4 19:12:25 10° N 19:17:41 89° W 19:22:54 10° S
STARLINK-1198 2.8 19:14:57 10° W 19:18:05 86° S 19:20:42 14° E
STARLINK-1209 2.7 19:15:14 10° W 19:18:14 78° S 19:20:38 15° ESE
STARLINK-1188 2.8 19:15:24 10° W 19:18:32 86° S 19:21:08 14° E
Terra 4.0 19:17:28 10° ENE 19:19:06 12° NE 19:20:44 10° NNE
STARLINK-1235 2.9 19:16:02 10° W 19:19:12 81° S 19:21:46 15° ESE
STARLINK-1187 2.9 19:16:27 10° W 19:19:38 84° S 19:22:12 15° ESE
STARLINK-1199 2.8 19:17:21 10° W 19:20:30 86° S 19:23:03 15° E
Cosmos 1603 3.6 19:14:58 10° SSW 19:20:32 67° ESE 19:26:07 10° NE
STARLINK-1191 2.8 19:17:48 10° W 19:20:57 85° S 19:23:29 15° E
FREGAT/IRIS 3.5 19:18:33 10° S 19:21:10 44° W 19:23:50 10° NNW
STARLINK-1210 2.8 19:18:15 10° W 19:21:24 85° S 19:23:55 15° E
MOS 1 Rocket 4.2 19:16:32 10° NNE 19:21:27 36° E 19:26:26 10° SSE
STARLINK-1221 2.8 19:18:42 10° W 19:21:52 85° S 19:24:21 15° E
STARLINK-1202 3.6 19:17:56 10° W 19:22:06 88° N 19:25:56 12° E
Cosmos 2058 Rocket 4.0 19:18:17 10° SSE 19:22:11 29° E 19:26:05 10° NNE
STARLINK-1219 2.8 19:19:09 10° W 19:22:19 85° S 19:24:47 15° E
STARLINK-1222 2.8 19:19:37 10° W 19:22:45 85° S 19:25:13 15° E
ATLAS 2AS CENTAUR R/B 3.0 19:15:14 10° NW 19:23:02 87° SW 19:29:59 11° SE
Ariane Rocket 3.9 19:18:13 10° S 19:23:10 52° W 19:28:08 10° NNW
STARLINK-1211 2.8 19:20:04 10° W 19:23:13 85° S 19:25:39 16° ESE
USA 234 4.2 19:18:39 10° ENE 19:23:39 23° SE 19:28:38 10° S
STARLINK-1214 2.8 19:20:31 10° W 19:23:39 84° S 19:26:05 16° ESE
Cosmos 2237 Rocket 4.4 19:18:58 10° W 19:23:41 27° NW 19:28:25 10° NNE
STARLINK-1245 2.8 19:20:59 10° W 19:24:07 84° S 19:26:30 16° ESE
STARLINK-1238 2.8 19:21:24 10° W 19:24:33 84° S 19:26:57 16° ESE
STARLINK-1205 2.8 19:22:20 10° W 19:25:28 84° S 19:27:49 17° ESE
STARLINK-1204 2.8 19:22:48 10° W 19:25:56 83° S 19:28:14 17° ESE
Resurs 01 Rocket 2.0 19:21:46 10° SE 19:26:01 48° ENE 19:30:17 10° N
STARLINK-1203 3.7 19:22:06 10° W 19:26:19 88° N 19:30:01 13° E
Cosmos 2154 Rocket 4.1 19:20:27 10° N 19:26:49 68° ENE 19:33:08 10° SSE
SeaSat 1 3.3 19:24:43 10° NNE 19:29:33 55° NW 19:34:22 10° SW
Meteor 1-16 Rocket 4.1 19:24:45 10° S 19:30:07 70° E 19:35:42 10° NNE
STARLINK-1246 3.6 19:27:54 10° W 19:32:04 88° N 19:35:30 15° E
SL-4 R/B 2.9 19:29:55 10° SSW 19:32:36 22° SSE 19:33:44 18° ESE
Nadezhda 1 Rocket 4.1 19:26:54 10° S 19:33:08 58° E 19:39:21 10° NNE
Cosmos 1140 Rocket 4.3 19:28:50 10° SSE 19:33:09 27° E 19:37:28 10° NE
STARLINK-1201 2.9 19:30:57 10° W 19:34:14 82° S 19:36:24 19° ESE
Spot 2 Rocket 4.2 19:31:33 15° SE 19:35:23 38° ENE 19:40:06 10° N
Cosmos 1726 Rocket 3.7 19:31:06 10° S 19:35:25 55° E 19:39:47 10° NNE
STARLINK-1224 3.6 19:32:52 10° W 19:37:02 89° N 19:40:17 16° E
Cosmos 1340 Rocket 3.5 19:33:28 10° SSE 19:37:10 34° E 19:40:51 10° NNE
Cosmos 1825 Rocket 4.0 19:33:57 10° NNW 19:38:20 65° W 19:42:39 10° S
Cosmos 1328 3.8 19:34:23 10° NNW 19:38:25 84° W 19:42:25 10° S
ATLAS 5 CENTAUR R/B 2.7 19:35:30 10° SSE 19:38:39 20° ESE 19:42:02 10° ENE
STARLINK-1225 3.6 19:37:52 10° W 19:42:03 89° N 19:45:05 18° E
Cosmos 1703 3.5 19:39:52 10° NNW 19:43:50 72° W 19:47:46 10° S
Meteor 2-17 Rocket 4.4 19:37:47 10° N 19:43:59 85° E 19:50:09 10° SSE
STARLINK-1230 3.6 19:42:51 10° W 19:47:01 90° S 19:49:52 20° E
Cosmos 1943 Rocket 4.3 19:43:50 10° NW 19:48:07 23° WSW 19:52:26 10° SSW
Cosmos 614 Rocket 4.0 19:44:51 10° S 19:49:57 55° ESE 19:55:03 10° NNE
Cosmos 2369 Rocket 4.0 19:45:21 10° NW 19:50:11 29° WSW 19:55:00 10° SSW
Abrixas rocket 2.9 19:48:50 10° WSW 19:51:32 32° S 19:52:19 27° SSE
Cosmos 1300 3.6 19:50:48 24° ESE 19:51:58 28° E 19:55:17 10° NNE
STARLINK-1243 3.6 19:47:48 10° W 19:51:58 89° S 19:54:37 22° E
COSMOS 2455 2.9 19:46:14 10° NW 19:52:19 78° NE 19:56:39 20° SE
SL-24 R/B 3.8 19:48:00 10° NNE 19:52:22 84° E 19:56:15 10° SSW
SPOT 3 Rocket 4.0 19:47:26 10° S 19:52:37 65° WSW 19:57:49 10° NNW
CZ-2C R/B 3.7 19:49:25 10° NNE 19:54:12 86° ESE 19:58:52 10° SSW
Cosmos 921 Rocket 2.9 19:50:20 10° NNW 19:54:32 72° ENE 19:57:12 22° SSE
IGS 5A 4.3 19:53:17 23° ESE 19:55:09 33° ENE 19:58:55 10° N
STARLINK-1236 3.6 19:52:49 10° W 19:56:59 88° S 19:59:25 24° E
Cosmos 1953 Rocket 4.1 19:54:16 10° NNW 19:58:41 60° W 20:03:06 10° S
Cosmos 1953 4.0 19:55:53 10° SW 19:59:35 37° WNW 20:03:20 10° N
Cosmos 407 Rocket 3.5 19:56:16 10° S 20:01:18 57° ESE 20:06:20 10° NNE
Cosmos 2228 3.2 19:57:28 10° SSW 20:01:46 74° WNW 20:06:08 10° N
Cosmos 1606 Rocket 3.9 20:00:00 10° SSW 20:04:24 67° WNW 20:08:54 10° N
Cosmos 1908 3.3 20:01:03 10° SSW 20:04:55 77° WNW 20:08:50 10° N
STARLINK-1269 3.5 20:02:47 10° W 20:06:57 85° S 20:09:00 29° ESE
ATLAS CENTAUR R/B 3.2 20:05:51 10° NNW 20:09:01 21° NNE 20:11:25 13° ENE
Cosmos 1818 3.5 20:03:43 10° SW 20:09:10 82° SE 20:14:40 10° NE
ERBS 2.6 20:05:50 10° WNW 20:09:12 59° NNE 20:10:29 33° E
ERS-1 Rocket 3.7 20:07:39 25° ESE 20:09:56 38° ENE 20:14:35 10° N
STARLINK-1200 3.5 20:07:46 10° W 20:11:56 83° S 20:13:47 32° ESE
Landsat 7 4.0 20:11:38 28° SE 20:13:57 54° ENE 20:18:36 10° N
Cosmos 220 Rocket 4.3 20:11:57 10° NNW 20:16:11 52° ENE 20:17:45 34° ESE
STARLINK-1192 3.5 20:12:44 10° W 20:16:54 82° S 20:18:33 35° ESE
SPOT 1/Viking Rocket 3.8 20:14:31 27° SE 20:17:09 54° ENE 20:22:15 10° N
Cosmos 1461 3.6 20:12:59 10° NW 20:17:24 55° SW 20:19:51 25° SSE
Cosmos 1943 3.6 20:13:04 10° SW 20:18:43 66° NW 20:24:25 10° NNE
MetOp-B 4.1 20:15:08 21° SSE 20:18:52 88° ENE 20:24:17 10° NNW
STARLINK-1244 3.5 20:17:43 10° W 20:21:53 80° SSW 20:23:21 39° ESE
Cosmos 1954 Rocket 4.2 20:21:02 19° S 20:24:28 46° ESE 20:29:28 10° NE
SAR-Lupe-2 3.4 20:21:57 10° NNE 20:25:32 66° ESE 20:26:39 40° S
STARLINK-1138 3.5 20:22:41 10° W 20:26:50 78° SSW 20:28:06 43° ESE
CZ-4C R/B 3.6 20:25:24 10° NW 20:31:36 44° NNE 20:37:07 17° E
STARLINK-1143 3.5 20:27:38 10° W 20:31:48 76° SSW 20:32:52 47° ESE
Cosmos 2151 4.0 20:28:10 10° N 20:31:52 29° ENE 20:32:13 28° ENE
STARLINK-1228 3.9 20:30:08 10° W 20:32:28 32° SW 20:32:28 32° SW
Cosmos 1697 Rocket 3.7 20:27:44 10° NNW 20:32:58 36° NE 20:35:27 25° E
Cosmos 1023 Rocket 4.3 20:27:58 10° SSW 20:33:08 78° ESE 20:38:17 10° NNE
Cosmos 1076 Rocket 3.5 20:29:41 10° N 20:33:56 64° ENE 20:35:03 45° SE
STARLINK-1241 3.5 20:32:39 10° W 20:36:48 73° SSW 20:37:41 52° SE
CZ-2C R/B 2.8 20:31:52 10° NNE 20:37:02 70° WNW 20:42:11 10° SSW
SPOT 5 3.0 20:36:47 41° ESE 20:37:42 48° ENE 20:41:52 10° N
Cosmos 2341 Rocket 4.3 20:35:16 10° NNW 20:41:36 68° W 20:46:40 17° S
STARLINK-1239 3.5 20:37:37 10° W 20:41:46 71° SSW 20:42:27 57° SE
Iridium 2 3.5 20:42:00 59° SSE 20:42:36 75° E 20:46:26 10° N
Cosmos 2058 2.8 20:39:22 10° N 20:43:29 77° ENE 20:44:18 56° SSE
STARLINK-1233 3.9 20:40:51 10° W 20:43:20 36° SW 20:43:20 36° SW
STARLINK-1212 4.0 20:41:19 10° W 20:43:45 35° SW 20:43:45 35° SW
STARLINK-1105 4.0 20:41:45 10° W 20:44:12 35° SW 20:44:12 35° SW
STARLINK-1206 4.0 20:42:16 10° W 20:44:37 34° SW 20:44:37 34° SW
Aureole 1 Rocket 4.3 20:38:07 10° SSW 20:45:30 73° WNW 20:51:13 10° NNE
STARLINK-1247 4.1 20:42:42 10° W 20:45:03 34° SW 20:45:03 34° SW
STARLINK-1227 4.1 20:43:07 10° W 20:45:29 34° SW 20:45:29 34° SW
SL-16 R/B 4.4 20:42:32 10° NNW 20:46:15 17° NNE 20:49:57 10° ENE
STARLINK-1218 4.1 20:43:37 10° W 20:45:55 33° WSW 20:45:55 33° WSW
STARLINK-1240 3.5 20:42:37 10° W 20:46:45 69° SSW 20:47:15 61° SSE
STARLINK-1226 4.1 20:44:03 10° W 20:46:21 33° WSW 20:46:21 33° WSW
STARLINK-1254 4.1 20:44:28 10° W 20:46:47 33° WSW 20:46:47 33° WSW
STARLINK-1215 4.2 20:44:58 10° W 20:47:13 32° WSW 20:47:13 32° WSW
Cosmos 1763 Rocket 3.5 20:42:53 10° NNW 20:48:06 65° ENE 20:49:35 44° ESE
STARLINK-1231 4.2 20:45:25 10° W 20:47:39 32° WSW 20:47:39 32° WSW
STARLINK-1232 4.2 20:46:19 10° W 20:48:31 31° WSW 20:48:31 31° WSW
STARLINK-1217 4.2 20:46:46 10° W 20:48:57 31° WSW 20:48:57 31° WSW
STARLINK-1208 4.2 20:47:11 10° W 20:49:24 31° WSW 20:49:24 31° WSW
STARLINK-1229 4.3 20:47:40 10° W 20:49:48 30° WSW 20:49:48 30° WSW
STARLINK-1271 4.3 20:48:07 10° W 20:50:15 30° WSW 20:50:15 30° WSW
STARLINK-1270 4.3 20:48:36 10° W 20:50:42 30° WSW 20:50:42 30° WSW
STARLINK-1216 3.5 20:47:36 10° W 20:51:44 66° SSW 20:52:03 63° S
STARLINK-1154 4.4 20:49:01 10° W 20:51:06 29° WSW 20:51:06 29° WSW
Cosmos 1408 3.3 20:49:00 10° N 20:52:05 41° NE 20:52:05 41° NE
STARLINK-1197 4.4 20:49:56 10° W 20:51:59 29° WSW 20:51:59 29° WSW
STARLINK-1189 4.4 20:50:24 10° W 20:52:25 28° WSW 20:52:25 28° WSW
STARLINK-1198 4.4 20:50:50 10° W 20:52:51 28° WSW 20:52:51 28° WSW
STARLINK-1188 4.5 20:51:17 10° W 20:53:17 28° WSW 20:53:17 28° WSW
USA 32 4.2 20:49:22 10° N 20:54:31 56° ENE 20:55:38 46° ESE
Terra 2.0 20:55:02 48° ESE 20:55:52 55° ENE 21:00:33 10° N
RESURS DK-1 2.9 20:52:01 10° NNW 20:56:03 45° NE 20:56:27 44° ENE
Cosmos-2242 4.1 20:57:02 30° ENE 20:57:02 30° ENE 21:00:02 10° NNE
Cosmos 2322 Rocket 4.4 20:52:31 10° NNW 20:56:12 17° NNE 20:59:50 10° ENE
STARLINK-1237 3.6 20:52:34 10° W 20:56:41 64° SSW 20:56:48 63° S
Cosmos 1174 3.9 20:53:18 10° NW 20:57:14 84° SW 20:57:56 62° SSE
Cosmos 2218 Rocket 4.0 20:52:57 10° NNW 20:59:09 77° W 21:02:26 30° S
Cosmos 192 4.3 20:54:49 10° NNW 20:59:47 77° WSW 21:01:07 49° S
Cosmos 2058 Rocket 4.5 20:55:50 10° SW 21:00:04 39° WNW 21:04:19 10° N
Cosmos 2344 4.5 20:52:06 10° NW 21:00:38 60° NNE 21:08:39 21° ESE
Cosmos 1980 Rocket 3.3 20:56:07 10° NNW 21:01:13 34° NE 21:03:11 27° E
STARLINK-1202 3.7 20:57:32 10° W 21:01:35 61° SSW 21:01:35 61° SSW
Cosmos 1892 2.6 20:57:47 10° NNW 21:01:42 87° W 21:01:53 81° SSW
Cosmos 1455 3.7 21:03:40 26° NE 21:03:40 26° NE 21:05:47 10° NNE
Resurs 01 Rocket 3.6 20:59:15 11° SSW 21:02:44 24° W 21:06:23 10° NW
Cosmos 540 Rocket 3.9 20:58:23 10° NNW 21:03:25 48° ENE 21:04:25 42° E
STARLINK-1203 3.9 21:01:56 10° W 21:05:52 56° SW 21:05:52 56° SW
USA 234 3.2 21:01:05 10° ENE 21:07:35 63° SE 21:14:03 10° SW
Okean 3 Rocket 3.7 21:03:49 10° N 21:08:11 56° ENE 21:08:14 56° ENE
Cosmos 1656 3.6 21:03:26 10° NNW 21:09:11 82° ENE 21:10:37 52° SE
Iridium 4 Rocket 3.2 21:05:39 10° N 21:09:55 66° W 21:10:42 53° SW
CARTOSAT-1 3.5 21:10:07 68° S 21:10:37 82° WSW 21:14:59 10° NNW
STARLINK-1246 4.0 21:07:30 10° W 21:11:09 53° SW 21:11:09 53° SW
SL-4 R/B 3.7 21:08:19 10° WSW 21:09:22 18° WSW 21:09:22 18° WSW
Cosmos 1850 Rocket 4.2 21:13:06 48° E 21:13:06 48° E 21:17:39 10° NE
ATLAS 2AS CENTAUR R/B 4.3 21:07:03 10° WNW 21:13:05 27° WSW 21:17:26 15° SSW
Cosmos 1140 Rocket 4.1 21:09:32 10° SW 21:14:39 56° WNW 21:19:45 10° NNE
STARLINK-1224 4.2 21:12:29 10° W 21:15:55 48° WSW 21:15:55 48° WSW
Cosmos 2181 Rocket 4.2 21:12:14 18° SSW 21:17:02 69° WNW 21:23:14 10° N
Cosmos 1825 2.8 21:13:29 10° N 21:16:32 48° NNE 21:16:32 48° NNE
Cosmos 1766 Rocket 3.7 21:15:40 10° N 21:20:00 61° ENE 21:20:00 61° ENE
STARLINK-1225 4.3 21:17:29 10° W 21:20:44 43° WSW 21:20:44 43° WSW
ATLAS 5 CENTAUR R/B 1.7 21:18:19 10° SW 21:22:37 77° NW 21:27:36 10° NE
Cosmos 841 Rocket 3.4 21:18:14 10° NNW 21:23:33 72° ENE 21:24:13 63° ESE
Cosmos 2278 4.1 21:18:52 10° NNW 21:24:24 51° NE 21:25:34 44° E
Cosmos 1300 4.5 21:25:42 20° WSW 21:27:35 30° WNW 21:31:01 10° N
Cosmos 1570 Rocket 3.9 21:23:45 10° NNW 21:29:09 89° WSW 21:29:51 69° SSE
Cosmos 2082 Rocket 4.0 21:33:29 16° ENE 21:33:29 16° ENE 21:35:14 10° NE
Mayak 0.3 21:28:24 10° NNE 21:30:35 26° NE 21:30:35 26° NE
Cosmos 468 Rocket 4.4 21:27:55 10° NNW 21:32:57 52° WSW 21:33:48 46° SW
Cosmos 1812 Rocket 4.2 21:33:49 43° WSW 21:34:43 51° WNW 21:38:59 10° N
COSMOS 2455 4.3 21:32:49 10° NW 21:37:43 27° WSW 21:39:49 22° SW
ASTEX 1 3.5 21:39:12 64° ENE 21:39:12 64° ENE 21:44:02 10° N
Cosmos 1356 Rocket 3.9 21:43:19 59° NNE 21:43:19 59° NNE 21:46:49 10° NNE
Nadezhda 3 Rocket 3.9 21:43:48 61° SSE 21:44:51 74° E 21:51:08 10° NNE
COSMOS 2406 3.3 21:45:30 57° E 21:45:30 57° E 21:50:33 10° NE
Cosmos 1833 Rocket 3.7 21:47:50 32° ENE 21:47:50 32° ENE 21:51:20 10° NE
Cosmos 1535 Rocket 4.4 21:42:05 10° N 21:48:14 67° ENE 21:48:58 61° ESE
ATLAS CENTAUR R/B 2.2 21:44:39 10° NW 21:47:36 45° NNW 21:47:36 45° NNW
ERS-1 Rocket 4.0 21:47:39 34° SW 21:48:45 38° W 21:53:27 10° NNW
Cosmos 1743 Rocket 4.4 21:58:23 10° N 22:01:52 46° NNE 22:01:52 46° NNE
Thor Agena Rocket 4.0 21:58:19 10° NNE 22:02:20 49° ENE 22:02:20 49° ENE
Cosmos 1408 Rocket 4.0 21:58:51 10° NNW 22:02:35 60° NNW 22:02:35 60° NNW
Cosmos 2369 3.6 21:59:58 10° NW 22:05:37 71° WSW 22:05:45 71° SW
Cosmos 2208 Rocket 4.3 22:01:09 10° NNW 22:06:09 56° WSW 22:06:09 56° WSW
Cosmos 1741 Rocket 4.2 22:07:29 64° WSW 22:08:05 71° WNW 22:13:27 10° NNE
Cosmos 2151 4.3 22:05:23 10° NNW 22:08:48 34° WNW 22:08:48 34° WNW
Meteor 2-10 Rocket 3.8 22:12:36 60° WSW 22:13:04 63° WNW 22:18:29 10° N
Cosmos 1821 Rocket 4.4 22:07:02 10° NNW 22:13:16 58° W 22:14:33 49° SW
SPOT 5 4.4 22:16:00 23° W 22:16:03 23° W 22:19:34 10° NW
Cosmos 1697 Rocket 2.9 22:11:41 10° NW 22:17:11 59° WSW 22:17:11 59° WSW
CZ-4C R/B 2.8 22:13:57 10° NW 22:20:53 87° SW 22:22:17 64° SE
Cosmos 1934 Rocket 3.9 22:15:32 10° NNW 22:21:49 76° W 22:22:23 70° SW
Meteor 2-3 Rocket 3.8 22:20:55 10° NNW 22:26:39 66° W 22:26:44 66° WSW
SL-16 R/B 2.8 22:26:22 10° NNW 22:31:52 46° NE 22:32:21 45° ENE
Cosmos 2221 3.9 22:33:51 34° NNE 22:33:51 34° NNE 22:36:27 10° NNE
Cosmos 1605 Rocket 3.8 22:26:14 10° N 22:32:24 89° ENE 22:32:34 86° SSE
Cosmos-2242 4.5 22:33:51 32° WNW 22:33:51 32° WNW 22:37:39 10° N
RESURS DK-1 4.5 22:30:22 10° NW 22:32:20 21° WNW 22:32:20 21° WNW
Terra 3.5 22:33:54 24° W 22:33:56 24° W 22:37:51 10° NW
Cosmos 2360 Rocket 3.6 22:33:02 10° NNW 22:37:57 30° NE 22:39:34 26° ENE
Cosmos 1455 4.4 22:38:34 23° NW 22:38:34 23° NW 22:41:10 10° NNW
Cosmos 2322 Rocket 2.8 22:36:17 10° NNW 22:41:44 46° NE 22:42:08 45° ENE
Cosmos 1980 Rocket 2.5 22:40:03 10° NW 22:44:56 58° W 22:44:56 58° W
Cosmos 2333 Rocket 4.4 22:41:40 10° NNW 22:45:51 20° NNE 22:49:56 10° ENE
Cosmos 1339 Rocket 4.4 22:49:26 86° SE 22:49:31 86° E 22:55:58 10° NNE
ALOS 2 3.7 22:51:07 43° N 22:51:07 43° N 22:54:06 10° NNW
USA 234 3.4 22:44:12 10° ENE 22:50:44 73° NNW 22:57:16 10° W
Sich 1 4.3 22:51:15 10° N 22:54:11 39° N 22:54:11 39° N
Mayak 0.6 23:04:13 10° N 23:07:09 27° NW 23:07:09 27° NW
ATLAS 5 CENTAUR R/B 3.6 23:03:56 10° WNW 23:08:01 30° NNW 23:12:39 10° NE
Cosmos 2082 Rocket 2.4 23:15:17 68° NNE 23:15:17 68° NNE 23:20:16 10° NNE
Cosmos 2344 4.4 23:06:29 10° NW 23:15:45 65° SW 23:18:39 52° S
Cosmos 2061 Rocket 4.2 23:11:56 10° N 23:18:06 60° ENE 23:18:10 60° ENE
Cosmos 968 Rocket 4.2 23:27:05 49° NE 23:27:05 49° NE 23:30:59 10° NNE
Cosmos 1833 Rocket 3.3 23:29:29 47° WNW 23:29:59 48° NW 23:35:29 10° NNE
Cosmos 1633 Rocket 4.5 23:25:47 10° N 23:28:32 37° N 23:28:32 37° N
SL-16 R/B 4.2 23:29:18 20° E 23:32:03 27° NE 23:37:08 10° N
Cosmos 2219 Rocket 3.7 23:32:51 10° NNW 23:37:48 30° NE 23:40:11 22° E
Cosmos 2237 4.5 23:34:30 10° NNW 23:40:00 63° NE 23:40:00 63° NE
Cosmos 1607 3.9 23:48:20 75° NE 23:48:20 75° NE 23:54:05 10° NE
Cosmos 1459 Rocket 4.1 23:41:40 10° NNW 23:47:45 68° WNW 23:47:45 68° WNW
COSMOS 2428 4.1 23:45:13 10° NNW 23:50:26 34° NE 23:52:47 25° E
Cosmos 2322 4.4 23:45:48 10° NNW 23:51:21 48° NE 23:52:06 45° ENE
Cosmos 1727 Rocket 4.3 23:51:23 57° W 23:51:33 57° WNW 23:57:48 10° N
MOS 1-B Rocket 4.0 23:46:33 10° NNE 23:52:35 88° WNW 23:52:40 88° WSW
Cosmos 1864 Rocket 4.4 23:46:41 10° N 23:53:01 82° ENE 23:53:01 82° ENE
